This is the latest recevied weather packets stored in our database for station/object KE0PRS. If no packets are shown the sender has not sent any weather packets the latest 10 day(s).
| Time | Temp. | Humidity | Pressure | Rain* | Wind** | Luminosity | Snow |
|---|---|---|---|---|---|---|---|
| 1787407085 | 25° C | 75% | 1020.2 hPa | 0 mm | - | 150 W/m² | - |
| 1787406781 | 25° C | 75% | 1019.9 hPa | 0 mm | - | 107 W/m² | - |
| 1787406475 | 25° C | 76% | 1019.8 hPa | 0 mm | - | 125 W/m² | - |
| 1787406171 | 24.44° C | 78% | 1019.7 hPa | 0 mm | - | 141 W/m² | - |
| 1787405867 | 23.89° C | 81% | 1019.9 hPa | 0 mm | - | 135 W/m² | - |
| 1787405564 | 23.89° C | 81% | 1020.2 hPa | 0 mm | - | 113 W/m² | - |
| 1787405263 | 23.89° C | 80% | 1019.8 hPa | 0 mm | - | 100 W/m² | - |
| 1787404960 | 23.89° C | 79% | 1019.1 hPa | 0 mm | - | 82 W/m² | - |
| 1787404655 | 23.89° C | 80% | 1018.9 hPa | 0 mm | - | 72 W/m² | - |
| 1787404355 | 23.33° C | 82% | 1018.5 hPa | 0 mm | - | 64 W/m² | - |
| 1787404050 | 22.78° C | 85% | 1018.4 hPa | 0 mm | - | 54 W/m² | - |
| 1787403746 | 22.78° C | 85% | 1018.5 hPa | 0 mm | - | 46 W/m² | - |
| 1787403445 | 22.78° C | 86% | 1018.7 hPa | 0 mm | - | 41 W/m² | - |
| 1787403141 | 22.78° C | 85% | 1018.4 hPa | 0 mm | - | 37 W/m² | - |
| 1787402837 | 22.78° C | 84% | 1018.3 hPa | 0 mm | - | 30 W/m² | - |
| 1787402532 | 22.78° C | 85% | 1018.2 hPa | 0 mm | - | 23 W/m² | - |
| 1787402231 | 22.78° C | 85% | 1018.2 hPa | 0 mm | - | 16 W/m² | - |
| 1787401926 | 22.78° C | 86% | 1017.9 hPa | 0 mm | - | 13 W/m² | - |
| 1787401622 | 22.78° C | 86% | 1017.9 hPa | 0 mm | - | 11 W/m² | - |
| 1787401318 | 22.78° C | 87% | 1017.9 hPa | 0 mm | - | 8 W/m² | - |
| 1787401013 | 22.22° C | 88% | 1018.3 hPa | 0 mm | - | 3 W/m² | - |
| 1787400709 | 22.22° C | 88% | 1018.5 hPa | 0 mm | - | 2 W/m² | - |
| 1787400408 | 22.22° C | 88% | 1018.3 hPa | 0 mm | - | 2 W/m² | - |
| 1787400104 | 22.22° C | 88% | 1018.3 hPa | 0 mm | - | 1 W/m² | - |
| 1787399801 | 22.22° C | 88% | 1018.1 hPa | 0 mm | - | 1 W/m² | - |
* Rain latest hour (hover to see other rain measurements)
** Current wind speed in m/s (hover to see current wind gust speed)